STARLINK-36052

Last updated on Wed Dec 31 2025 00:02:06 GMT+0000 (Coordinated Universal Time)

1 66605U 25270T 25364.58546338 .00072297 00000+0 17144-2 0 9996 2 66605 43.0039 89.3540 0002964 301.8399 58.2168 15.40824098 7106
UTC large
Height (km)
Speed (km/s)
/
Latitude / Longitude
Inclination (degrees)
Orbital Period (minutes)
Azimuth
Elevation
Range (km)
Doppler Factor

Next 0 passes for location: London (51.5072 / 0.1276)

Sorry there are no passes over London.